sat.trackr.live / text

‹ back to catalog

HYPSO-1

NORAD 51053 · 2022-002BX

PAYLOAD ACTIVE UNKNOWN

§ Identity

Operator
Country
NOR
Launch date
2022-01-13
Launch site
AFETR
Launch vehicle
Mass (kg)
RCS (m²)

External: N2YO · Heavens-Above · Gunter

§ Orbital elements

Epoch: 2026-09-20T03:26:07.398816Z

Period
90.63 min
Inclination
97.2697°
Eccentricity
0.0004524
Mean motion
15.88929264 rev/d
Perigee alt
302.3 km
Apogee alt
308.3 km
Semi-major
6,683.4 km
B*
5.7886e-4
RAAN
349.2176°
Arg perigee
258.3163°
Mean anomaly
101.7602°
Rev number
26,189

§ Raw data

HYPSO-11 51053U 22002BX  26263.14314119  .00162615  11495-4  57886-3 0  99952 51053  97.2697 349.2176 0004524 258.3163 101.7602 15.88929264261898

JSON: /api/v1/satellites/51053 · /tle

For live sub-satellite position, see the globe view (requires WebGL).

§ Visibility from observer

Set your observer location to see the next 7 days of passes ≥ 10°. The values pass through the URL so the page stays shareable.

No JS? Fill the form by hand. The geolocation button needs JavaScript.